Jefferson City, MO

10:29 PM CST on November 16, 2019 (GMT -0600)
Jefferson City Memorial

Weather History for KJEF - October, 2019

Change the Weather History Date:

Tuesday, October 22, 2019

  Actual Average Record
Temperature  
Mean Temperature 53 °F -  
Max Temperature 60 °F 71 °F 89 °F (1978)
Min Temperature 46 °F 41 °F 14 °F (1987)
Degree Days  
Heating Degree Days 12    
Growing Degree Days 3 (Base 50)    
Moisture  
Dew Point 33 °F    
Average Humidity 51    
Maximum Humidity 68    
Minimum Humidity 29    
Precipitation  
Precipitation 0.00 in - - ()
Sea Level Pressure  
Sea Level Pressure 29.90 in    
Wind  
Wind Speed 12 mph ()    
Max Wind Speed 25 mph    
Max Gust Speed 40 mph    
Visibility 10.0 miles    
Events      
Averages and records for this station are not official NWS values.
T = Trace of Precipitation, MM = Missing Value Source: Averaged Metar Reports

Daily Weather History Graph

Daily Weather History Graph

Search for Another Location

Airport or City:

Astronomy

Oct. 22, 2019 Rise Set
Actual Time 7:24 AM CDT 6:21 PM CDT
Civil Twilight 6:57 AM CDT 6:48 PM CDT
Nautical Twilight 6:26 AM CDT 7:18 PM CDT
Astronomical Twilight 5:55 AM CDT 7:49 PM CDT
Moon 12:40 AM CDT (10/22) 3:25 PM CDT (10/22)
Length of Visible Light 11h 50m
Length of Day
10h 56m
Last Quarter, 37% of the Moon is Illuminated
Oct 22
Last Quarter
Oct 27
New
Nov 4
First Quarter
Nov 12
Full
Nov 19
Last Quarter

Hourly Weather History & Observations

Time (CDT) Temp. Dew Point Humidity Pressure Visibility Wind Dir Wind Speed Gust Speed Precip Events Conditions
12:53 AM 54.0 °F 37.9 °F 55% 29.78 in 10.0 mi West 18.4 mph 27.6 mph N/A   Overcast
1:53 AM 53.1 °F 39.0 °F 59% 29.79 in 10.0 mi West 17.3 mph 24.2 mph N/A   Overcast
2:53 AM 51.1 °F 39.0 °F 63% 29.80 in 10.0 mi West 12.7 mph - N/A   Clear
3:53 AM 50.0 °F 39.0 °F 66% 29.81 in 10.0 mi West 12.7 mph - N/A   Clear
4:53 AM 48.9 °F 37.9 °F 66% 29.83 in 10.0 mi West 9.2 mph - N/A   Clear
5:53 AM 48.0 °F 37.9 °F 68% 29.84 in 10.0 mi West 9.2 mph - N/A   Clear
6:53 AM 46.9 °F 36.0 °F 66% 29.85 in 10.0 mi West 11.5 mph - N/A   Clear
7:53 AM 46.9 °F 34.0 °F 61% 29.88 in 10.0 mi West 16.1 mph 25.3 mph N/A   Clear
8:53 AM 48.0 °F 34.0 °F 58% 29.89 in 10.0 mi West 18.4 mph 26.5 mph N/A   Clear
10:53 AM 52.0 °F 32.0 °F 47% 29.93 in 10.0 mi West 19.6 mph 29.9 mph N/A   Clear
11:53 AM 54.0 °F 33.1 °F 45% 29.93 in 10.0 mi West 16.1 mph - N/A   Clear
12:53 PM 55.9 °F 30.9 °F 39% 29.92 in 10.0 mi West 18.4 mph 26.5 mph N/A   Clear
1:53 PM 57.9 °F 27.0 °F 31% 29.91 in 10.0 mi West 19.6 mph 33.4 mph N/A   Clear
2:53 PM 59.0 °F 27.0 °F 29% 29.91 in 10.0 mi WNW 24.2 mph 40.3 mph N/A   Clear
3:53 PM 60.1 °F 28.0 °F 30% 29.92 in 10.0 mi West 25.3 mph 32.2 mph N/A   Clear
4:53 PM 59.0 °F 28.0 °F 31% 29.93 in 10.0 mi West 23.0 mph 32.2 mph N/A   Clear
5:53 PM 57.9 °F 28.9 °F 33% 29.95 in 10.0 mi WNW 11.5 mph 24.2 mph N/A   Clear
6:53 PM 55.0 °F 28.9 °F 37% 29.97 in 10.0 mi West 6.9 mph - N/A   Clear
7:53 PM 53.1 °F 28.9 °F 40% 29.98 in 10.0 mi Calm Calm - N/A   Clear
8:53 PM 48.0 °F 36.0 °F 63% 29.99 in 10.0 mi Calm Calm - N/A   Clear
9:53 PM 46.9 °F 35.1 °F 63% 29.99 in 10.0 mi Calm Calm - N/A   Clear
10:53 PM 48.9 °F 33.1 °F 54% 29.99 in 10.0 mi Calm Calm - N/A   Clear
11:53 PM 48.0 °F 34.0 °F 58% 29.97 in 10.0 mi ESE 3.5 mph - N/A   Clear